DateTimeUTC,F1_A11,F1_S11,BsB_S11,BsG_S11,BsR_S11,BbsB_S11,BbsG_S11,BbsR_S11,BaB_A11,BaG_A11,BaR_A11,T_S11,U_S11,P_S11,T1_A11
2020-07-18T00:00:00Z,00000388,20000608,,,,,,,,,,24.4,02.1,0676.4,30.9
2020-07-18T00:01:00Z,00000388,20000608,,,,,,,,,,24.4,02.1,0676.4,30.9
2020-07-18T00:02:00Z,00000388,20000608,,,,,,,,,,24.4,02.1,0676.4,30.9
2020-07-18T00:03:00Z,00000388,60000608,,,,,,,,,,24.4,02.1,0676.4,30.8
2020-07-18T00:04:00Z,00000388,40000608,-000.47,0000.01,0000.35,0000.70,0000.13,0000.12,0000.09,0000.01,0000.15,24.2,02.3,0677.3,30.9
2020-07-18T00:05:00Z,00000388,00000608,0001.55,0000.41,0000.18,0000.18,-000.30,0000.38,0000.07,0000.06,-000.09,24.1,02.3,0677.3,30.9
2020-07-18T00:06:00Z,00000388,00000608,0000.13,0000.23,0000.32,0000.43,0000.06,0000.16,-000.04,0000.03,0000.17,24.1,02.2,0677.3,30.9
2020-07-18T00:07:00Z,00000388,00000608,0001.23,0000.21,0000.62,0000.25,0000.08,-000.01,0000.11,0000.20,0000.06,24.1,02.3,0677.3,30.9
2020-07-18T00:08:00Z,00000388,00000608,0000.97,0000.72,0000.14,0000.52,-000.02,0000.42,0000.09,0000.13,-000.04,24.1,02.3,0677.3,30.9
2020-07-18T00:09:00Z,00000388,00000608,0001.11,0000.17,-000.00,0000.01,0000.59,0000.24,0000.05,-000.08,0000.15,24.1,02.3,0677.3,30.9
2020-07-18T00:10:00Z,00000388,00000608,0000.60,0000.37,0000.31,0000.73,-000.37,-000.10,0000.02,0000.04,0000.03,24.0,02.3,0677.3,30.9
2020-07-18T00:11:00Z,00000388,00000608,0001.16,0000.37,0000.08,0001.01,0000.11,0000.49,0000.06,0000.17,0000.13,24.0,02.3,0677.4,30.9
2020-07-18T00:12:00Z,00000388,00000608,0001.10,0000.31,-000.12,0000.99,0000.06,-000.15,0000.15,-000.08,-000.16,24.1,02.2,0677.4,30.9
2020-07-18T00:13:00Z,00000388,00000608,0001.08,0000.99,0000.37,0000.50,-000.38,0000.31,0000.02,0000.19,0000.11,24.0,02.3,0677.3,30.9
2020-07-18T00:14:00Z,00000388,00000608,0000.43,-000.10,0000.75,0001.00,-000.12,0000.34,0000.07,-000.25,0000.01,24.0,02.2,0677.3,30.9
2020-07-18T00:15:00Z,00000388,00000608,0001.25,0000.34,0000.24,0000.43,0000.24,0000.72,0000.00,0000.44,0000.07,24.0,02.2,0677.3,30.9
2020-07-18T00:16:00Z,00000388,00000608,0000.18,0000.92,0000.49,0000.15,0000.27,-000.05,0000.11,-000.13,0000.12,24.0,02.2,0677.3,30.9
2020-07-18T00:17:00Z,00000388,00000608,0000.31,0000.55,0000.14,0000.26,0000.26,-000.12,-000.03,0000.00,-000.15,24.0,02.3,0677.3,30.9
2020-07-18T00:18:00Z,00000388,00000608,0000.50,-000.14,0000.35,0000.28,-000.01,0000.14,0000.17,0000.25,0000.29,24.0,02.3,0677.3,30.8
2020-07-18T00:19:00Z,00000388,00000608,0001.22,0000.55,0000.46,0000.74,0000.13,0000.28,-000.01,-000.01,-000.12,24.0,02.3,0677.3,30.8
2020-07-18T00:20:00Z,00000388,00000608,-000.36,0000.48,0000.53,0000.19,-000.02,-000.16,0000.14,0000.10,0000.23,24.0,02.3,0677.3,30.8
2020-07-18T00:21:00Z,00000388,00000608,0000.88,0000.07,0000.55,0001.11,-000.41,0000.51,0000.10,-000.06,-000.24,24.0,02.2,0677.3,30.9
2020-07-18T00:22:00Z,00000388,00000608,-000.62,0000.75,-000.01,0000.58,0000.46,0000.06,0000.04,0000.07,0000.19,24.0,02.2,0677.3,30.9
2020-07-18T00:23:00Z,00000388,00000608,0000.99,0000.17,-000.06,0000.48,-000.36,0000.01,-000.04,0000.12,-000.07,23.9,02.2,0677.3,30.8
2020-07-18T00:24:00Z,00000388,00000608,0001.28,0000.27,0000.42,-000.35,-000.18,0000.12,0000.07,-000.10,-000.09,23.9,02.1,0677.3,30.8
2020-07-18T00:25:00Z,00000388,00000608,-000.04,0000.35,-000.10,-000.13,-000.24,-000.34,0000.03,-000.06,0000.09,23.9,02.2,0677.3,30.8
2020-07-18T00:26:00Z,00000388,00000608,0001.31,-000.06,0000.28,0000.15,0000.01,0000.10,-000.01,0000.05,0000.12,23.9,02.1,0677.3,30.9
2020-07-18T00:27:00Z,00000388,00000608,0000.50,0000.36,-000.05,0001.46,-000.15,-000.24,-000.08,0000.14,-000.00,23.9,02.1,0677.2,30.9
2020-07-18T00:28:00Z,00000388,00000608,0000.69,-000.02,0000.16,0000.11,-000.51,0000.35,0000.17,-000.13,-000.21,23.9,02.1,0677.3,30.9
2020-07-18T00:29:00Z,00000388,00000608,0000.50,-000.24,0000.45,0000.73,-000.66,-000.02,0000.12,0000.07,0000.10,23.9,02.1,0677.3,30.9
2020-07-18T00:30:00Z,00000388,00000608,0000.28,0000.48,0000.35,0000.70,-000.05,0000.16,-000.08,0000.00,0000.21,23.9,02.1,0677.3,30.9
2020-07-18T00:31:00Z,00000388,00000608,0000.77,0000.13,-000.35,0000.47,-000.13,0000.17,-000.01,0000.21,-000.07,23.9,02.1,0677.3,30.9
2020-07-18T00:32:00Z,00000388,00000608,0000.36,0000.21,0000.24,0000.04,-000.09,0000.32,-000.01,-000.10,0000.01,23.9,02.0,0677.3,30.9
2020-07-18T00:33:00Z,00000388,00000608,0000.49,0000.21,0000.26,0001.65,0000.52,0000.29,0000.13,0000.08,0000.08,23.9,02.0,0677.3,30.9
2020-07-18T00:34:00Z,00000388,00000608,0000.92,-000.10,-000.09,0000.36,0000.08,0000.36,0000.16,0000.15,0000.22,23.9,02.1,0677.3,30.8
2020-07-18T00:35:00Z,00000388,00000608,0000.84,0000.04,-000.03,-000.04,-000.15,0000.22,0000.10,0000.03,-000.05,23.9,02.0,0677.2,30.8
2020-07-18T00:36:00Z,00000388,00010608,0000.64,0000.11,-000.02,0000.83,0000.02,0000.33,-000.16,-000.06,-000.03,23.9,02.0,0677.3,30.8
2020-07-18T00:37:00Z,00000388,00000608,0000.41,-000.03,0000.01,0000.05,0000.31,0000.31,0000.04,0000.05,-000.01,23.9,02.1,0677.3,30.9
2020-07-18T00:38:00Z,00000388,00000608,0000.52,0000.41,0000.32,0000.77,0000.01,0000.18,0000.21,-000.06,-000.00,23.8,02.0,0677.3,30.9
2020-07-18T00:39:00Z,00000388,00000608,0001.26,0000.15,-000.08,-000.03,-000.07,-000.01,-000.12,0000.21,0000.03,23.8,02.0,0677.3,30.9
2020-07-18T00:40:00Z,00000388,00000608,0000.68,0000.21,0000.13,0000.14,-000.17,0000.03,0000.14,0000.06,0000.12,23.8,02.0,0677.3,30.9
2020-07-18T00:41:00Z,00000388,00000608,0000.50,0000.63,0000.11,-000.04,-000.26,0000.59,-000.06,0000.01,0000.04,23.8,02.0,0677.3,30.8
2020-07-18T00:42:00Z,00000388,00000608,0001.27,0000.50,0000.54,0000.85,-000.08,0000.52,0000.06,0000.14,0000.05,23.8,02.0,0677.3,30.8
2020-07-18T00:43:00Z,00000388,00000608,0000.84,0000.59,0000.41,0001.05,0000.12,0000.38,0000.04,-000.05,0000.03,23.8,01.9,0677.3,30.8
2020-07-18T00:44:00Z,00000388,00000608,0001.08,-000.00,-000.22,-000.02,-000.07,0000.06,0000.01,0000.02,-000.01,23.8,02.0,0677.3,30.8
2020-07-18T00:45:00Z,00000388,00000608,0000.17,0000.02,0000.46,-000.36,-000.17,0000.49,0000.07,0000.16,0000.12,23.8,01.9,0677.3,30.8
2020-07-18T00:46:00Z,00000388,00000608,0000.84,0000.63,0000.63,0000.47,0000.05,0000.11,0000.07,-000.17,-000.00,23.8,01.9,0677.3,30.8
2020-07-18T00:47:00Z,00000388,00000608,0000.55,0000.06,-000.07,0000.29,-000.11,0000.11,0000.07,0000.26,0000.06,23.8,01.9,0677.3,30.8
2020-07-18T00:48:00Z,00000388,00000608,0000.48,0000.25,0000.14,0000.95,-000.03,-000.15,0000.13,-000.13,-000.13,23.8,01.9,0677.3,30.8
2020-07-18T00:49:00Z,00000388,00000608,0000.60,0000.04,0000.22,0000.16,-000.05,0000.42,0000.06,0000.10,0000.04,23.8,01.9,0677.4,30.8
2020-07-18T00:50:00Z,00000388,00000608,-000.20,0000.74,0000.08,0000.39,-000.02,0000.15,-000.16,0000.04,0000.05,23.8,01.9,0677.4,30.8
2020-07-18T00:51:00Z,00000388,00000608,0000.64,0000.64,-000.13,0000.06,0000.09,-000.19,0000.10,-000.01,-000.08,23.8,01.9,0677.4,30.8
2020-07-18T00:52:00Z,00000388,00000608,0000.50,0000.03,-000.26,0000.05,0000.01,-000.31,0000.08,0000.01,0000.08,23.8,01.9,0677.4,30.8
2020-07-18T00:53:00Z,00000388,00000608,0000.26,0000.21,0000.11,0000.56,-000.38,0000.27,0000.04,0000.08,0000.12,23.8,01.9,0677.4,30.8
2020-07-18T00:54:00Z,00000388,00000608,0001.08,0000.26,-000.01,0000.57,0000.16,0000.36,0000.13,0000.04,0000.00,23.8,01.9,0677.4,30.8
2020-07-18T00:55:00Z,00000388,00000608,0000.67,0000.45,-000.09,0000.40,-000.30,0000.34,-000.21,0000.07,-000.03,23.7,01.9,0677.4,30.8
2020-07-18T00:56:00Z,00000388,00000608,0000.81,0000.02,-000.16,0000.14,-000.16,0000.23,0000.18,0000.08,0000.05,23.8,01.9,0677.4,30.9
2020-07-18T00:57:00Z,00000388,40000608,,,,,,,,,,23.8,02.2,0677.3,30.9
2020-07-18T00:58:00Z,00000388,60000608,,,,,,,,,,23.9,01.9,0676.3,30.8
2020-07-18T00:59:00Z,00000388,20000608,,,,,,,,,,24.0,01.9,0676.3,30.8
2020-07-18T01:00:00Z,00000388,20000608,,,,,,,,,,24.0,01.7,0676.3,30.8
2020-07-18T01:01:00Z,00000388,20000608,,,,,,,,,,24.0,01.7,0676.3,30.8
2020-07-18T01:02:00Z,00000388,20000608,,,,,,,,,,24.0,01.7,0676.3,30.8
2020-07-18T01:03:00Z,00000388,60000608,,,,,,,,,,24.0,01.7,0676.2,30.8
2020-07-18T01:04:00Z,00000388,40000608,-000.78,0001.16,0000.39,0000.63,-000.18,-000.07,-000.14,-000.03,-000.20,23.8,01.8,0677.2,30.8
2020-07-18T01:05:00Z,00000388,00000608,-001.05,0000.06,0000.15,0000.36,0000.11,0000.64,0000.12,-000.02,0000.03,23.7,01.8,0677.2,30.8
2020-07-18T01:06:00Z,00000388,00000608,-001.88,0000.22,0000.63,0000.06,0000.21,0000.25,0000.09,-000.03,-000.08,23.7,01.8,0677.2,30.8
2020-07-18T01:07:00Z,00000388,00000608,-001.51,0000.73,-000.13,0000.67,-000.12,-000.02,-000.21,-000.05,-000.06,23.7,01.7,0677.2,30.8
2020-07-18T01:08:00Z,00000388,00000608,-001.23,0000.48,0000.67,0000.33,0000.22,0000.37,0000.12,0000.06,0000.08,23.7,01.7,0677.3,30.8
2020-07-18T01:09:00Z,00000388,00000608,-001.18,-000.19,0000.33,0000.11,0000.05,0000.23,0000.05,0000.00,0000.01,23.7,01.7,0677.3,30.8
2020-07-18T01:10:00Z,00000388,00000608,-002.97,-000.19,0000.08,0000.72,-000.07,-000.04,0000.07,0000.00,-000.05,23.7,01.7,0677.3,30.8
2020-07-18T01:11:00Z,00000388,00000608,-000.87,0000.08,0000.48,0000.63,0000.46,0000.23,0000.01,0000.03,0000.21,23.7,01.7,0677.2,30.8
2020-07-18T01:12:00Z,00000388,00000608,-001.02,0000.67,0000.29,-000.31,0000.19,0000.22,0000.04,0000.18,0000.12,23.7,01.7,0677.2,30.8
2020-07-18T01:13:00Z,00000388,00000608,-001.76,0000.50,-000.08,-000.15,-000.33,0000.08,0000.11,-000.03,-000.14,23.6,01.7,0677.3,30.8
2020-07-18T01:14:00Z,00000388,00000608,-000.88,0000.16,0000.07,-000.03,-000.24,-000.00,0000.16,-000.01,-000.04,23.7,01.7,0677.3,30.8
2020-07-18T01:15:00Z,00000388,00000608,-000.58,0000.15,0000.52,0000.12,-000.03,0000.34,-000.09,0000.02,-000.08,23.6,01.6,0677.3,30.8
2020-07-18T01:16:00Z,00000388,00000608,-000.23,0000.51,-000.25,0000.46,0000.01,0000.02,0000.06,0000.12,0000.11,23.6,01.6,0677.2,30.8
2020-07-18T01:17:00Z,00000388,00000608,-000.65,0000.68,0000.18,0000.55,0000.09,0000.38,0000.10,0000.02,0000.03,23.6,01.7,0677.2,30.8
2020-07-18T01:18:00Z,00000388,00000608,-001.21,0000.68,0000.54,0000.32,0000.02,0000.22,0000.30,0000.15,0000.13,23.6,01.6,0677.2,30.8
2020-07-18T01:19:00Z,00000388,00000608,-001.42,0000.59,-000.10,0000.17,0000.14,-000.13,0000.36,0000.43,0000.31,23.6,01.6,0677.2,30.8
2020-07-18T01:20:00Z,00000388,00000608,-000.95,0000.39,0000.55,0000.58,0000.05,0000.00,0000.57,0000.42,0000.46,23.6,01.6,0677.2,30.8
2020-07-18T01:21:00Z,00000388,00000608,-000.86,0000.55,0000.73,0000.50,-000.01,0000.09,0000.19,0000.00,0000.19,23.6,01.6,0677.2,30.8
2020-07-18T01:22:00Z,00000388,00000608,-000.69,0000.63,0000.24,0000.41,0000.03,0000.20,0000.04,-000.02,-000.10,23.6,01.6,0677.2,30.8
2020-07-18T01:23:00Z,00000388,00000608,-000.59,0000.47,0000.15,-000.17,0000.30,-000.01,0000.09,0000.24,0000.00,23.5,01.6,0677.2,30.8
2020-07-18T01:24:00Z,00000388,00000608,-000.91,0000.32,-000.01,0000.83,-000.15,-000.15,0000.02,0000.23,0000.06,23.6,01.6,0677.2,30.8
2020-07-18T01:25:00Z,00000388,00000608,-000.59,0000.33,0000.46,-000.53,-000.09,0000.35,0000.05,-000.16,-000.05,23.6,01.5,0677.2,30.8
2020-07-18T01:26:00Z,00000388,00000608,-001.62,-000.19,0000.22,0000.40,-000.00,0000.02,0000.08,0000.09,0000.00,23.6,01.6,0677.1,30.9
2020-07-18T01:27:00Z,00000388,00000608,-001.21,0000.31,0000.65,0000.64,0000.13,0000.69,0000.07,0000.06,0000.12,23.6,01.6,0677.1,30.8
2020-07-18T01:28:00Z,00000388,00000608,-000.99,0000.18,0000.26,-000.69,0000.22,0000.15,0000.30,0000.13,0000.26,23.6,01.6,0677.1,30.8
2020-07-18T01:29:00Z,00000388,00000608,0011.57,0009.83,0005.80,0002.10,0001.82,0001.61,0026.58,0024.45,0019.13,23.6,01.6,0677.1,30.8
2020-07-18T01:30:00Z,00000388,00000608,0038.19,0031.19,0019.06,0007.30,0006.36,0004.91,0100.65,0092.91,0073.81,23.6,01.6,0677.0,30.8
2020-07-18T01:31:00Z,00000388,00000608,0041.98,0031.66,0020.35,0008.03,0006.21,0004.50,0113.30,0105.08,0083.90,23.6,01.6,0677.0,30.8
2020-07-18T01:32:00Z,00000388,00000608,0033.06,0025.44,0016.38,0006.37,0004.91,0004.19,0090.78,0083.74,0067.09,23.6,01.6,0677.0,30.8
2020-07-18T01:33:00Z,00000388,00000608,0025.15,0019.67,0012.65,0004.36,0003.77,0002.93,0069.05,0064.23,0051.29,23.6,01.7,0677.0,30.8
2020-07-18T01:34:00Z,00000388,00000608,0009.01,0008.11,0004.91,0002.53,0001.56,0000.88,0029.96,0027.97,0022.43,23.6,01.7,0677.0,30.8
2020-07-18T01:35:00Z,00000388,00000608,-000.85,0001.18,0000.96,0000.15,0000.22,0000.29,0004.17,0003.76,0003.14,23.6,01.6,0677.0,30.8
2020-07-18T01:36:00Z,00000388,00000608,0001.09,0001.95,0000.88,0000.95,0000.12,0000.29,0004.26,0003.95,0003.00,23.5,01.7,0677.0,30.8
2020-07-18T01:37:00Z,00000388,00000608,0014.14,0012.06,0007.77,0003.40,0002.49,0001.84,0037.28,0034.32,0027.35,23.6,01.6,0677.1,30.8
2020-07-18T01:38:00Z,00000388,00000608,0043.79,0033.80,0021.34,0007.45,0006.67,0005.52,0112.87,0104.05,0082.81,23.5,01.5,0677.0,30.8
2020-07-18T01:39:00Z,00000388,00000608,0053.32,0039.14,0025.58,0009.99,0008.06,0006.03,0139.27,0129.04,0102.95,23.5,01.5,0677.1,30.8
2020-07-18T01:40:00Z,00000388,00000608,0035.72,0028.36,0018.02,0007.06,0005.74,0003.84,0103.94,0096.63,0076.87,23.6,01.5,0677.1,30.8
2020-07-18T01:41:00Z,00000388,01000608,0027.97,0020.97,0013.37,0005.55,0004.02,0003.35,0076.78,0070.75,0056.71,23.6,01.5,0677.1,30.9
2020-07-18T01:42:00Z,00000388,00000608,0013.70,0011.46,0007.34,0003.00,0002.46,0001.61,0043.36,0040.10,0032.31,23.6,01.5,0677.1,30.8
2020-07-18T01:43:00Z,00000388,00000608,0002.58,0003.49,0002.02,0000.92,0000.54,0000.57,0011.30,0010.55,0008.38,23.6,01.5,0677.1,30.8
2020-07-18T01:44:00Z,00000388,00000608,0010.31,0007.74,0005.49,0002.08,0001.34,0001.10,0023.60,0021.66,0017.24,23.6,01.5,0677.1,30.8
2020-07-18T01:45:00Z,00000388,00000608,0035.09,0026.25,0016.78,0006.03,0004.98,0004.12,0083.55,0077.19,0061.57,23.6,01.4,0677.1,30.8
2020-07-18T01:46:00Z,00000388,00000608,0034.46,0027.29,0017.64,0006.65,0005.52,0004.13,0097.23,0090.25,0072.23,23.6,01.4,0677.1,30.8
2020-07-18T01:47:00Z,00000388,00000608,0006.55,0004.16,0003.07,0001.24,0000.85,0000.87,0018.84,0017.79,0014.33,23.6,01.4,0677.1,30.8
2020-07-18T01:48:00Z,00000388,00000608,0000.12,0000.40,0000.43,0001.12,0000.10,0000.21,0001.28,0001.38,0001.11,23.5,01.4,0677.1,30.8
2020-07-18T01:49:00Z,00000388,00000608,-001.35,0000.22,0000.02,0000.13,0000.12,0000.35,0000.85,0000.50,0000.41,23.5,01.3,0677.1,30.8
2020-07-18T01:50:00Z,00000388,00000608,-000.50,0000.03,0000.29,-000.47,0000.24,0000.17,0000.59,0000.61,0000.42,23.5,01.4,0677.1,30.8
2020-07-18T01:51:00Z,00000388,00000608,0000.70,0000.60,0000.24,0000.18,0000.10,-000.11,0000.15,0000.26,0000.27,23.5,01.3,0677.1,30.8
2020-07-18T01:52:00Z,00000388,00000608,0000.44,0000.66,0000.58,0000.30,0000.32,0000.26,0000.30,0000.23,0000.24,23.5,01.3,0677.1,30.8
2020-07-18T01:53:00Z,00000388,00000608,-000.90,0000.76,0000.10,0000.23,0000.05,-000.27,0000.28,0000.30,0000.14,23.5,01.3,0677.1,30.8
2020-07-18T01:54:00Z,00000388,00000608,-000.68,0000.43,0000.19,0000.12,-000.19,0000.20,0000.23,0000.20,0000.03,23.5,01.3,0677.2,30.8
2020-07-18T01:55:00Z,00000388,01000608,-000.31,0000.68,0000.16,0000.29,0000.41,0000.23,0000.25,0000.30,0000.20,23.5,01.3,0677.1,30.8
2020-07-18T01:56:00Z,00000388,01000608,-000.51,0000.41,0000.32,-000.10,-000.48,0000.71,0000.46,0000.17,0000.36,23.5,01.3,0677.1,30.8
2020-07-18T01:57:00Z,00000388,40000608,,,,,,,,,,23.5,01.5,0677.1,30.8
2020-07-18T01:58:00Z,00000388,60000608,,,,,,,,,,23.6,01.3,0676.1,30.8
2020-07-18T01:59:00Z,00000388,20000608,,,,,,,,,,23.7,01.2,0676.1,30.8
2020-07-18T02:00:00Z,00000388,20000608,,,,,,,,,,23.7,01.1,0676.1,30.8
2020-07-18T02:01:00Z,00000388,20000608,,,,,,,,,,23.7,01.1,0676.1,30.8
2020-07-18T02:02:00Z,00000388,20000608,,,,,,,,,,23.7,01.1,0676.1,30.8
2020-07-18T02:03:00Z,00000388,60000608,,,,,,,,,,23.8,01.1,0676.1,30.8
2020-07-18T02:04:00Z,00000388,41000608,-000.09,0000.35,0000.23,-000.69,-000.21,0000.39,0000.20,0000.37,0000.25,23.5,01.2,0677.0,30.8
2020-07-18T02:05:00Z,00000388,01000608,0000.02,0000.49,0000.11,-000.84,0000.27,-000.02,0000.19,0000.15,0000.03,23.5,01.2,0677.0,30.8
2020-07-18T02:06:00Z,00000388,01000608,-000.07,0000.29,0000.46,-000.68,0000.20,-000.19,0000.04,-000.07,0000.15,23.4,01.2,0677.0,30.8
2020-07-18T02:07:00Z,00000388,01000608,-000.46,0000.18,-000.27,-000.63,0000.17,0000.46,0000.17,0000.23,0000.10,23.4,01.2,0677.1,30.8
2020-07-18T02:08:00Z,00000388,01000608,0000.96,0000.67,0000.07,-000.33,0000.25,0000.00,0000.28,-000.03,0000.20,23.4,01.2,0677.1,30.8
2020-07-18T02:09:00Z,00000388,00000608,0001.00,0000.38,-000.09,-000.74,-000.13,0000.06,0000.12,0000.24,-000.05,23.4,01.2,0677.1,30.8
2020-07-18T02:10:00Z,00000388,01000608,0000.51,0000.44,0000.21,-000.07,0000.01,0000.20,0000.02,0000.06,0000.18,23.4,01.2,0677.1,30.8
2020-07-18T02:11:00Z,00000388,01000608,0000.26,-000.08,-000.13,-000.67,-000.03,-000.07,0000.29,0000.11,-000.10,23.5,01.2,0677.1,30.8
2020-07-18T02:12:00Z,00000388,01000608,0000.59,0000.24,0000.33,0000.16,0000.06,0000.39,-000.02,0000.04,0000.06,23.5,01.1,0677.1,30.9
2020-07-18T02:13:00Z,00000388,01000608,0000.64,-000.11,0000.17,-000.76,0000.09,-000.03,0000.11,0000.14,0000.22,23.5,01.1,0677.1,30.8
2020-07-18T02:14:00Z,00000388,01000608,-000.47,0000.46,-000.01,-000.02,0000.26,-000.29,0000.06,-000.06,-000.12,23.5,01.1,0677.1,30.8
2020-07-18T02:15:00Z,00000388,01000608,0001.16,0000.32,0000.12,-000.09,0000.18,0000.02,0000.09,0000.29,0000.05,23.5,01.0,0677.1,30.8
2020-07-18T02:16:00Z,00000388,01000608,-000.04,0000.04,0000.14,-000.36,0000.48,0000.41,0000.09,0000.15,0000.09,23.5,01.0,0677.1,30.8
2020-07-18T02:17:00Z,00000388,01000608,0001.28,0000.63,-000.11,-000.30,0000.07,0000.17,0000.16,-000.07,0000.10,23.5,01.0,0677.1,30.8
2020-07-18T02:18:00Z,00000388,01000608,0000.06,-000.06,-000.22,-000.35,0000.23,-000.12,0000.05,0000.25,0000.21,23.5,01.0,0677.1,30.8
2020-07-18T02:19:00Z,00000388,01000608,0000.10,-000.24,0000.35,-000.19,0000.14,0000.14,0000.10,0000.10,-000.10,23.5,01.0,0677.1,30.8
2020-07-18T02:20:00Z,00000388,01000608,0000.08,0000.42,-000.23,0000.24,0000.24,0000.01,0000.18,-000.05,0000.05,23.4,00.9,0677.2,30.8
2020-07-18T02:21:00Z,00000388,01000608,0000.22,-000.03,-000.00,0000.52,0000.33,-000.10,-000.07,0000.05,0000.14,23.4,00.9,0677.2,30.8
2020-07-18T02:22:00Z,00000388,01000608,-000.03,0000.04,-000.28,-000.97,0000.13,-000.04,0000.26,0000.20,0000.24,23.4,00.9,0677.2,30.8
2020-07-18T02:23:00Z,00000388,01000608,0000.39,-000.09,-000.19,-001.23,0000.21,-000.10,-000.07,0000.01,-000.09,23.4,00.9,0677.2,30.8
2020-07-18T02:24:00Z,00000388,01000608,-000.06,0000.29,-000.09,-000.60,-000.16,0000.11,0000.27,0000.11,0000.09,23.4,00.9,0677.2,30.8
2020-07-18T02:25:00Z,00000388,01000608,0000.47,-000.03,-000.29,-000.47,-000.34,0000.05,0000.09,0000.17,0000.12,23.4,00.9,0677.2,30.8
2020-07-18T02:26:00Z,00000388,01000608,0001.63,0000.48,-000.03,-000.59,0000.27,0000.07,0000.11,0000.05,-000.05,23.5,00.9,0677.2,30.8
2020-07-18T02:27:00Z,00000388,01000608,-000.03,0000.12,0000.06,-000.39,0000.16,0000.15,0000.18,0000.09,0000.22,23.5,00.9,0677.2,30.8
2020-07-18T02:28:00Z,00000388,01000608,0000.47,0000.25,0000.07,-000.48,0000.24,-000.04,0000.59,0000.62,0000.45,23.5,00.9,0677.2,30.8
2020-07-18T02:29:00Z,00000388,01000608,0008.56,0005.96,0003.45,0001.00,0001.62,0000.86,0018.54,0016.96,0013.42,23.5,00.9,0677.3,30.8
2020-07-18T02:30:00Z,00000388,01000608,0014.97,0010.57,0006.69,0001.87,0002.07,0002.02,0035.90,0033.38,0026.57,23.5,00.9,0677.3,30.8
2020-07-18T02:31:00Z,00000388,01000608,0013.80,0010.50,0006.32,0001.72,0002.39,0002.00,0036.73,0034.09,0027.15,23.5,00.9,0677.3,30.8
2020-07-18T02:32:00Z,00000388,01000608,0010.87,0006.68,0004.29,0000.76,0002.21,0001.10,0025.42,0023.44,0018.87,23.4,00.9,0677.3,30.8
2020-07-18T02:33:00Z,00000388,01000608,0007.66,0006.19,0003.77,0001.56,0001.27,0001.20,0021.84,0020.29,0015.95,23.4,00.8,0677.3,30.8
2020-07-18T02:34:00Z,00000388,01000608,0007.60,0006.68,0004.34,0001.27,0001.55,0001.10,0022.54,0020.83,0016.66,23.4,00.8,0677.3,30.8
2020-07-18T02:35:00Z,00000388,01000608,0008.11,0005.83,0003.50,0001.27,0001.46,0000.85,0019.20,0017.82,0014.21,23.4,00.8,0677.3,30.8
2020-07-18T02:36:00Z,00000388,01000608,0006.48,0004.54,0002.76,0000.56,0001.03,0000.38,0014.82,0013.76,0010.99,23.4,00.7,0677.4,30.8
2020-07-18T02:37:00Z,00000388,01000608,0011.56,0007.75,0004.80,0001.27,0001.96,0001.24,0027.34,0025.04,0020.07,23.4,00.8,0677.4,30.8
2020-07-18T02:38:00Z,00000388,01000608,0017.24,0012.34,0007.68,0002.29,0002.61,0002.14,0041.99,0038.80,0030.96,23.3,00.8,0677.4,30.8
2020-07-18T02:39:00Z,00000388,01000608,0003.82,0004.16,0002.55,0000.13,0000.83,0001.05,0015.71,0014.63,0011.64,23.4,00.7,0677.4,30.8
2020-07-18T02:40:00Z,00000388,01000608,0001.77,-000.10,0000.30,-000.21,0000.05,0000.13,0000.97,0001.16,0000.96,23.4,00.7,0677.4,30.8
2020-07-18T02:41:00Z,00000388,01000608,0000.32,0000.58,-000.20,0000.10,0000.27,-000.08,0000.33,0000.24,0000.20,23.4,00.7,0677.4,30.8
2020-07-18T02:42:00Z,00000388,01000608,0000.94,0000.52,0000.12,-000.17,-000.28,0000.10,0000.07,0000.09,0000.13,23.4,00.6,0677.3,30.8
2020-07-18T02:43:00Z,00000388,01000608,-001.08,0000.53,0000.12,0000.08,0000.30,0000.07,0000.18,-000.03,0000.11,23.4,00.6,0677.3,30.8
2020-07-18T02:44:00Z,00000388,01000608,-000.72,0000.35,0000.13,-001.24,0000.25,0000.28,-000.02,0000.23,0000.05,23.4,00.5,0677.3,30.8
2020-07-18T02:45:00Z,00000388,01000608,0000.50,-000.44,0000.16,-000.11,-000.21,0000.18,0000.27,0000.01,0000.09,23.4,00.6,0677.3,30.8
2020-07-18T02:46:00Z,00000388,01000608,0000.64,0000.33,0000.10,0000.46,0000.16,-000.29,0000.08,0000.12,0000.08,23.4,00.5,0677.3,30.8
2020-07-18T02:47:00Z,00000388,01000608,-000.02,0000.43,0000.23,0000.01,0000.20,0000.13,0000.15,0000.03,0000.06,23.4,00.5,0677.3,30.8
2020-07-18T02:48:00Z,00000388,01000608,-000.04,-000.06,0000.37,-000.53,0000.33,0000.44,0000.10,0000.40,0000.02,23.4,00.4,0677.4,30.8
2020-07-18T02:49:00Z,00000388,01000608,0000.23,0000.18,-000.00,-000.78,0000.14,0000.09,0000.28,0000.03,0000.16,23.4,00.5,0677.4,30.8
2020-07-18T02:50:00Z,00000388,01000608,0000.06,-000.20,0000.20,-000.26,-000.16,-000.31,0000.01,0000.07,-000.07,23.4,00.4,0677.4,30.8
2020-07-18T02:51:00Z,00000388,01000608,0000.94,0000.10,0000.22,0000.44,0000.59,-000.25,0000.23,0000.21,0000.30,23.3,00.4,0677.4,30.8
2020-07-18T02:52:00Z,00000388,01000608,0000.13,0000.50,0000.57,0000.13,0000.34,0000.18,0000.36,0000.27,0000.02,23.3,00.4,0677.4,30.8
2020-07-18T02:53:00Z,00000388,01000608,0000.51,0000.17,-000.11,-000.27,-000.03,-000.00,0000.46,0000.33,0000.53,23.3,00.4,0677.4,30.8
2020-07-18T02:54:00Z,00000388,01000608,0000.44,0000.73,0000.52,0000.22,0000.05,0000.38,-000.00,0000.29,-000.03,23.3,00.4,0677.4,30.8
2020-07-18T02:55:00Z,00000388,01000608,0000.43,0000.42,0000.12,0000.00,0000.26,0000.08,0001.25,0001.01,0001.05,23.3,00.4,0677.3,30.8
2020-07-18T02:56:00Z,00000388,01000608,0001.55,0001.36,0000.95,0000.07,0000.47,0000.55,0003.40,0003.12,0002.31,23.4,00.5,0677.3,30.8
2020-07-18T02:57:00Z,00000388,41000608,,,,,,,,,,23.4,00.2,0677.4,30.8
2020-07-18T02:58:00Z,00000388,61000608,,,,,,,,,,23.6,00.6,0676.3,30.8
2020-07-18T02:59:00Z,00000388,21000608,,,,,,,,,,23.7,00.6,0676.2,30.8
2020-07-18T03:00:00Z,00000388,21000608,,,,,,,,,,23.7,00.4,0676.2,30.8
2020-07-18T03:01:00Z,00000388,21000608,,,,,,,,,,23.7,00.4,0676.2,30.8
2020-07-18T03:02:00Z,00000388,21000608,,,,,,,,,,23.7,00.4,0676.2,30.8
2020-07-18T03:03:00Z,00000388,61000608,,,,,,,,,,23.7,00.4,0676.2,30.8
2020-07-18T03:04:00Z,00000388,41000608,0001.94,0001.05,0000.19,-000.40,0000.15,0000.09,0003.85,0003.69,0002.95,23.4,00.6,0677.2,30.8
2020-07-18T03:05:00Z,00000388,01000608,0000.14,0000.43,0000.35,0000.21,-000.11,0000.04,0000.23,0000.24,0000.20,23.4,00.6,0677.3,30.8
2020-07-18T03:06:00Z,00000388,01000608,0000.24,0000.17,-000.05,-000.47,-000.09,-000.09,0000.12,-000.06,0000.09,23.3,00.7,0677.3,30.8
2020-07-18T03:07:00Z,00000388,01000608,0000.28,0000.32,-000.03,-000.93,-000.35,-000.17,0000.17,0000.43,0000.29,23.3,00.7,0677.3,30.8
2020-07-18T03:08:00Z,00000388,01000608,0000.69,0000.06,0000.17,-000.42,0000.16,0000.15,0000.14,0000.11,0000.04,23.3,00.6,0677.3,30.8
2020-07-18T03:09:00Z,00000388,01000608,0001.62,-000.08,-000.07,-000.07,0000.13,-000.07,0000.22,0000.19,0000.20,23.3,00.7,0677.3,30.8
2020-07-18T03:10:00Z,00000388,01000608,-000.41,0000.33,-000.02,-000.82,0000.44,-000.15,0000.16,0000.26,-000.04,23.3,00.6,0677.3,30.8